This is the latest recevied weather packets stored in our database for station/object G4KVI. If no packets are shown the sender has not sent any weather packets the latest 10 day(s).
| Time | Temp. | Humidity | Pressure | Rain* | Wind** | Luminosity | Snow |
|---|---|---|---|---|---|---|---|
| 1788104704 | 17.78° C | 80% | 1008.1 hPa | 0.25 mm | - | 96 W/m² | - |
| 1788104412 | 18.33° C | 79% | 1008.1 hPa | 0.25 mm | - | 80 W/m² | - |
| 1788104104 | 18.33° C | 76% | 1008.1 hPa | 0 mm | - | 75 W/m² | - |
| 1788103804 | 18.89° C | 73% | 1007.6 hPa | 0 mm | - | 73 W/m² | - |
| 1788103504 | 18.89° C | 71% | 1008.4 hPa | 0 mm | - | 54 W/m² | - |
| 1788103204 | 19.44° C | 70% | 1008.3 hPa | 0 mm | - | 70 W/m² | - |
| 1788102904 | 19.44° C | 70% | 1008.5 hPa | 0 mm | - | 100 W/m² | - |
| 1788102604 | 19.44° C | 70% | 1008.7 hPa | 0 mm | - | 107 W/m² | - |
| 1788102304 | 19.44° C | 70% | 1008.9 hPa | 0 mm | - | 125 W/m² | - |
| 1788102004 | 20° C | 70% | 1009 hPa | 0 mm | - | 164 W/m² | - |
| 1788101704 | 20° C | 69% | 1008.8 hPa | 0 mm | - | 174 W/m² | - |
| 1788101404 | 20° C | 68% | 1009.1 hPa | 0 mm | - | 179 W/m² | - |
| 1788101104 | 20° C | 67% | 1009.3 hPa | 0 mm | - | 163 W/m² | - |
| 1788100804 | 20° C | 67% | 1009.2 hPa | 0 mm | - | 202 W/m² | - |
| 1788100504 | 20° C | 66% | 1009.4 hPa | 0 mm | - | 212 W/m² | - |
| 1788100204 | 20° C | 67% | 1009.6 hPa | 0 mm | - | 248 W/m² | - |
| 1788099904 | 20.56° C | 66% | 1009.6 hPa | 0 mm | - | 126 W/m² | - |
| 1788099604 | 20.56° C | 65% | 1009.5 hPa | 0 mm | - | 155 W/m² | - |
| 1788099304 | 20° C | 66% | 1009.6 hPa | 0 mm | - | 223 W/m² | - |
| 1788099004 | 20° C | 67% | 1009.5 hPa | 0 mm | - | 360 W/m² | - |
| 1788098704 | 20° C | 66% | 1009.6 hPa | 0 mm | - | 116 W/m² | - |
| 1788098404 | 20.56° C | 65% | 1009.6 hPa | 0 mm | - | 119 W/m² | - |
| 1788098106 | 20.56° C | 66% | 1009.6 hPa | 0 mm | - | 219 W/m² | - |
| 1788097804 | 20.56° C | 65% | 1009.6 hPa | 0 mm | - | 307 W/m² | - |
| 1788097504 | 20.56° C | 66% | 1009.6 hPa | 0 mm | - | 196 W/m² | - |
* Rain latest hour (hover to see other rain measurements)
** Current wind speed in m/s (hover to see current wind gust speed)